Погода в Редмонде

США     47°40′11″N   122°07′21″W
темп.,
°C
ветер,
м/с
пор.,
м/с
влажн.,
%
обл.,
%
осадки,
мм/ч
давл.,
гПа
погр.,
м
5 марта, пт
пт501:00+7в1291100 0.3 101526
04:00+6юв1288100 0.3 101245
07:00+6юв2288100 0.0 101246
10:00+9зюз1389100 0.7 1013242
13:00+8ююз31093100 2.9 10131122
16:00+8юв3889100 4.4 1013884
19:00+6вюв2291100 1.2 101461
22:00+4юв2291100 1.4 101442
6 марта, сб
сб601:00+4ююв31091100 0.1 1014367
04:00+3юв3591100 0.1 1014148
07:00+4юв2793100 0.3 1015382
10:00+5ю3890100 0.6 1015916
13:00+7ююз478089 0.5 10151090
16:00+8ю257586 1.3 10151004
19:00+4вюв2692100 0.8 1015185
22:00+4в2588100 0.8 101598
7 марта, вс
вс701:00+3в2386100 0.0 101376
04:00+3ю2791100 0.4 1014247
07:00+2ю3898100 3.5 1015624
10:00+5ююз498587 4.8 10171187
13:00+7ююз4875100 1.8 10181423
16:00+6ю3676100 3.1 10191154
19:00+2юв2492100 1.1 1021105
22:00+1вюв129168 1.4 102223
8 марта, пн
пн801:00−1всв11910 0.0 102025
04:00−2всв11910 0.0 102025
07:00−3всв11870 0.0 101926
10:00+7ссз01597 0.0 1017360
13:00+11зсз124117 0.0 1016845
16:00+10с224638 0.0 1015699
19:00+2ссв1280100 0.0 101722
22:00+1вюв0186100 0.0 101922
9 марта, вт
вт901:000вюв1184100 0.0 101922
04:00−1в117697 0.0 102021
07:00−1в1167100 0.0 102022
10:00+8ссв124083 0.0 1020412
13:00+11сз22350 0.0 10191111
16:00+9ссз345114 0.0 1018689
19:00+2с12910 0.0 102023
22:000всв01940 0.0 102122